• Join FlightAware (Why Join?)
  • Login
  • US Flag 
09:38PM EST


 

Airport Tracker/Info


-or-


 

Live Flight TrackerFlight Track Log ✈ DAL1937 ✈ 24-May-2013 ✈ KBWI - KDTW

Flight Track Log - Related Links

Times and Time Zones

All times are in EDT time to prevent confusion due to time zone crossing. See the DAL1937 flight status page for this flight to view local times or setup timezone preferences in your user account.

Time Position Orientation Groundspeed Altitude Reporting Facility
EDT Latitude Longitude Course Direction KTS MPH feet Rate Location/Type
06:14AM 39.1667 -76.7333 293° West 178 205 2,200  Level Potomac TRACON
06:15AM 39.2000 -77.0683 270° West  Level FlightAware Approximate
06:15AM 39.2000 -76.8333 293° West 263 303 5,000  Level Potomac TRACON
06:16AM 39.2391 -77.1724 322° Northwest  Level FlightAware Approximate
06:16AM 39.2333 -76.9167 297° West 272 313 7,800  Level Potomac TRACON
06:17AM 39.3231 -77.2564 322° Northwest  Level FlightAware Approximate
06:18AM 39.3824 -77.3630 288° West  Level FlightAware Approximate
06:18AM 39.2856 -77.0878 292° West 279 321 13,400  Level Washington Center
06:19AM 39.4195 -77.4919 293° West  Level FlightAware Approximate
06:19AM 39.3175 -77.1850 293° West 284 327 15,900  Level Washington Center
06:20AM 39.3536 -77.2933 293° West 306 352 17,100 1,260 Climbing Washington Center
06:21AM 39.3978 -77.4178 295° West 344 396 18,500 1,560 Climbing Washington Center
06:22AM 39.4375 -77.5369 293° West 391 450 20,300 1,860 Climbing Washington Center
06:23AM 39.4789 -77.6725 292° West 408 470 22,300 1,620 Climbing Washington Center
06:24AM 39.5225 -77.8111 292° West 413 475 23,600 1,440 Climbing Washington Center
06:25AM 39.5656 -77.9550 291° West 418 481 25,200 1,500 Climbing Washington Center
06:26AM 39.6597 -78.2586 292° West 453 521 28,000 1,620 Climbing Cleveland Center
06:27AM 39.7022 -78.4031 291° West 448 516 30,000 1,920 Climbing Cleveland Center
06:28AM 39.7425 -78.5419 291° West 434 499 31,900 1,500 Climbing Cleveland Center
06:29AM 39.7822 -78.6758 291° West 417 480 33,100 960 Climbing Cleveland Center
06:30AM 39.8136 -78.8019 288° West 406 467 33,900 420 Climbing Cleveland Center
06:31AM 39.8531 -78.9444 290° West 406 467 34,000  Climbing Cleveland Center
06:32AM 39.9056 -79.1081 293° West 422 486 34,000  Level Cleveland Center
06:33AM 39.9469 -79.2561 290° West 431 496 34,000  Level Cleveland Center
06:35AM 39.9986 -79.3989 295° West 436 502 34,000 -120 Level Cleveland Center
06:35AM 40.0664 -79.5333 303° West 436 502 33,800 -540 Descending Cleveland Center
06:37AM 40.1322 -79.6625 304° West 436 502 33,000 -420 Descending Cleveland Center
06:37AM 40.2000 -79.7947 304° West 436 502 33,000  Level Cleveland Center
06:38AM 40.2675 -79.9275 304° West 436 502 33,000  Level Cleveland Center
06:39AM 40.3264 -80.0494 302° West 430 495 33,000 -300 Level Cleveland Center
06:40AM 40.3939 -80.1850 303° West 435 501 32,400 -780 Descending Cleveland Center
06:41AM 40.4631 -80.3211 304° West 441 507 31,500 -960 Descending Cleveland Center
06:42AM 40.5319 -80.4547 304° West 441 507 30,500 -780 Descending Cleveland Center
06:43AM 40.6092 -80.6050 304° West 441 507 30,000 -300 Descending Cleveland Center
06:45AM 40.6758 -80.7281 306° West 452 520 30,000  Level Cleveland Center
06:45AM 40.7486 -80.8628 306° West 452 520 30,000  Level Cleveland Center
06:46AM 40.8189 -80.9975 305° West 452 520 30,000 -180 Level Cleveland Center
06:47AM 40.8872 -81.1378 303° West 452 520 29,700 -660 Descending Cleveland Center
06:49AM 40.9572 -81.2706 305° West 452 520 28,700 -960 Descending Cleveland Center
06:50AM 41.0231 -81.3978 304° West 440 506 27,800 -960 Descending Cleveland Center
06:50AM 41.0889 -81.5253 304° West 432 497 26,800 -1,020 Descending Cleveland Center
06:52AM 41.1567 -81.6478 306° West 422 486 25,800 -960 Descending Cleveland Center
06:52AM 41.2181 -81.7700 304° West 411 473 24,900 -1,020 Descending Cleveland Center
06:53AM 41.2792 -81.8844 305° West 400 460 23,800 -1,020 Descending Cleveland Center
06:54AM 41.3322 -81.9906 304° West 376 433 22,900 -960 Descending Cleveland Center
06:56AM 41.3831 -82.0942 303° West 347 399 21,900 -960 Descending Cleveland Center
06:56AM 41.4317 -82.1950 303° West 334 384 21,000 -1,140 Descending Cleveland Center
06:58AM 41.4864 -82.3017 304° West 335 386 19,700 -1,620 Descending Cleveland Center
06:59AM 41.5408 -82.4142 303° West 355 409 17,800 -1,860 Descending Cleveland Center
06:59AM 41.5914 -82.5156 304° West 350 403 16,200 -2,100 Descending Cleveland Center
07:01AM 41.6519 -82.6311 305° West 328 377 13,700 -2,040 Descending Cleveland Center
07:01AM 41.6981 -82.7272 303° West 333 383 12,000 -1,020 Descending Cleveland Center
07:02AM 41.7442 -82.8264 302° West 322 371 11,700 -780 Descending Cleveland Center
07:04AM 41.7819 -82.9167 299° West 304 350 10,500 -1,260 Descending Cleveland Center
07:05AM 41.8117 -82.9958 297° West 284 327 9,200 -1,800 Descending Cleveland Center
07:05AM 41.8256 -83.0297 299° West 264 304 8,300 -1,860 Descending Cleveland Center
07:05AM 41.8453 -83.0806 298° West 272 313 7,400 -1,680 Descending Cleveland Center
07:06AM 41.8592 -83.1119 301° West 256 295 6,600 -1,380 Descending Cleveland Center
07:07AM 41.8786 -83.1656 296° West 261 300 6,000 -600 Descending Cleveland Center
07:07AM 41.8925 -83.1969 301° West 225 259 6,000  Level Cleveland Center
07:08AM 41.9083 -83.2422 295° West 234 269 6,000  Level Cleveland Center
07:08AM 41.9181 -83.2650 300° West 209 241 6,000  Level Cleveland Center
07:08AM 41.9275 -83.3156 284° West 210 242 6,000 -780 Level Cleveland Center
07:10AM 41.9564 -83.4089 293° West 196 226 4,500 -1,320 Descending Cleveland Center
07:11AM 42.0125 -83.4169 354° North 192 221 3,000 -840 Descending Cleveland Center
07:12AM 42.0481 -83.4158 North 156 180 3,000 -120 Level Cleveland Center
07:13AM 42.0961 -83.4122 North 156 180 2,800 -180 Descending Cleveland Center